Location: Kaarina
(60.4167°N, 22.4167°E)
Time: 11:30:39
(UTC+03:00)

Cosmos 1048 Rocket - Pass Details

Date: 24 August 2019
Orbit: 744 x 791 km, 74.0° (Epoch: 15 September)

Event Time Altitude Azimuth Distance (km) Brightness Sun altitude
Rises 23:00:20 0° 326° (NNW) 3,201 9.3 -12.5°
Reaches altitude 10° 23:02:44 10° 322° (NW) 2,273 8.0 -12.6°
Maximum altitude 23:07:43 53° 247° (WSW) 922 4.5 -13.0°
Enters shadow 23:11:48 15° 175° (S) 1,940 5.6 -13.3°
